Starlink 2705

operational
NORAD ID: 48672 Int'l Des: 2021-044 Owner: SPXS Country: US Constellation: starlink
LEOCIRCULARSTARLINK_TYPE

About Starlink 2705

Description loading...

Live Position

Loading 3D Globe...

Upcoming Passes

Altitude History

Altitude vs Time

uPlot chart will show altitude changes over time

Two-Line Element Set

1 48672U 21044AL 25349.36099248 .00000813 00000-0 73484-4 0 9994
2 48672 53.0559 130.1835 0001239 91.5589 268.5542 15.06389180251134
Epoch: Dec 15, 2025 • Age: 32 hours

Current Status

Altitude 549.0 km
Velocity 7.59 km/s
Sub-Earth Point -4.50°S, 148°E
Launch Date May 26, 2021
Age 4.5 years
Type internet

Technical Details

Classification Payload
Mass 260.00 kg
Dry Mass 248.00 kg
Total Mass 260.00 kg
Length 0.20 m
Diameter 2.80 m
Span 9.00 m
Shape Box + pan
Manufacturer SPXS
Bus Type Starlink
Phase Status In Orbit
Owner/State SPXS/US

Large Constellations

Loading constellations...